Knoxville, TN

3:16 PM EDT on April 25, 2017 (GMT -0400)
McGhee Tyson

Weather History for KTYS - January, 2014

Change the Weather History Date:

Saturday, January 11, 2014

  Actual Average Record
Temperature  
Mean Temperature 52 °F 38 °F  
Max Temperature 60 °F 47 °F 72 °F (1890)
Min Temperature 43 °F 29 °F -6 °F (1886)
Degree Days  
Heating Degree Days 13 27  
Month to date heating degree days 363 297  
Since 1 July heating degree days 1722 1730  
Cooling Degree Days 0 0  
Month to date cooling degree days 0 0  
Year to date cooling degree days 0 0  
Growing Degree Days 2 (Base 50)    
Moisture  
Dew Point 46 °F    
Average Humidity 68    
Maximum Humidity 100    
Minimum Humidity 36    
Precipitation  
Precipitation 1.34 in 0.15 in 2.44 in (1898)
Month to date precipitation 2.41 1.50  
Year to date precipitation 2.41 1.50  
Snow  
Snow 0.00 in 0.10 in - ()
Month to date snowfall 0.7 0.8  
Since 1 July snowfall 1.5 1.6  
Snow Depth 0.00 in    
Sea Level Pressure  
Sea Level Pressure 29.76 in    
Wind  
Wind Speed 10 mph (WSW)    
Max Wind Speed 25 mph    
Max Gust Speed 33 mph    
Visibility 5 miles    
Events Fog , Rain , Thunderstorm    
T = Trace of Precipitation, MM = Missing Value Source: NWS Daily Summary

Daily Weather History Graph

Daily Weather History Graph

Search for Another Location

Airport or City:

Trip Planner

Search our weather history database for the weather conditions in past years. The results will help you decide how hot, cold, wet, or windy it might be!

Date:

Astronomy

Jan. 11, 2014 Rise Set
Actual Time 7:46 AM EST 5:41 PM EST
Civil Twilight 7:18 AM EST 6:09 PM EST
Nautical Twilight 6:46 AM EST 6:41 PM EST
Astronomical Twilight 6:15 AM EST 7:12 PM EST
Moon 2:24 PM EST (1/11) 3:51 AM EST (1/11)
Length of Visible Light 10h 51m
Length of Day
9h 55m
Waxing Gibbous, 83% of the Moon is Illuminated
Jan 11
Waxing Gibbous
Jan 15
Full
Jan 24
Last Quarter
Jan 30
New
Feb 6
First Quarter

Hourly Weather History & Observations

Time (EST) Temp. Windchill Dew Point Humidity Pressure Visibility Wind Dir Wind Speed Gust Speed Precip Events Conditions
12:19 AM 46.4 °F - 44.6 °F 93% 29.92 in 2.5 mi Calm Calm - N/A   Overcast
12:25 AM 46.4 °F - 44.6 °F 93% 29.92 in 1.2 mi Calm Calm - N/A   Overcast
12:53 AM 46.0 °F 44.8 °F 45.0 °F 96% 29.89 in 1.0 mi NE 3.5 mph - N/A   Overcast
12:56 AM 46.4 °F 44.3 °F 44.6 °F 93% 29.89 in 0.5 mi ENE 4.6 mph - N/A Fog Fog
1:10 AM 46.4 °F 44.3 °F 44.6 °F 93% 29.88 in 0.2 mi East 4.6 mph - N/A Fog Fog
1:22 AM 44.6 °F 41.4 °F 44.6 °F 100% 29.87 in 0.2 mi East 5.8 mph - N/A Fog Fog
1:53 AM 45.0 °F 43.5 °F 45.0 °F 100% 29.85 in 0.2 mi North 3.5 mph - 0.05 in Fog , Rain Rain
2:00 AM 44.6 °F 43.1 °F 44.6 °F 100% 29.84 in 0.5 mi NE 3.5 mph - 0.01 in Fog , Rain Light Rain
2:17 AM 44.6 °F - 44.6 °F 100% 29.83 in 0.2 mi Calm Calm - 0.01 in Fog Fog
2:26 AM 44.6 °F - 44.6 °F 100% 29.83 in 0.2 mi Calm Calm - 0.01 in Fog Fog
2:53 AM 45.0 °F 43.5 °F 44.1 °F 97% 29.80 in 0.2 mi Variable 3.5 mph - 0.01 in Fog , Rain Light Rain
2:56 AM 44.6 °F 43.1 °F 44.6 °F 100% 29.81 in 0.2 mi NE 3.5 mph - 0.08 in Fog , Rain Heavy Rain
2:59 AM 44.6 °F 43.1 °F 44.6 °F 100% 29.81 in 0.5 mi NNW 3.5 mph - 0.08 in Fog , Rain Light Rain
3:10 AM 44.6 °F 41.4 °F 44.6 °F 100% 29.79 in 0.5 mi NNE 5.8 mph - 0.08 in   Overcast
3:26 AM 44.6 °F - 44.6 °F 100% 29.79 in 0.5 mi Calm Calm - 0.09 in Rain Light Rain
3:53 AM 45.0 °F - 45.0 °F 100% 29.77 in 0.5 mi Calm Calm - 0.12 in Rain Light Rain
4:53 AM 45.0 °F 43.5 °F 44.1 °F 97% 29.70 in 0.5 mi NE 3.5 mph - N/A Fog Fog
5:00 AM 44.6 °F 42.2 °F 42.8 °F 93% 29.70 in 0.5 mi North 4.6 mph - N/A Fog Fog
6:05 AM 46.4 °F 39.5 °F 44.6 °F 93% 29.71 in 1.0 mi WNW 17.3 mph 33.4 mph N/A   Overcast
6:08 AM 48.2 °F - 46.4 °F 93% 29.70 in 3.0 mi WNW 19.6 mph 33.4 mph 0.00 in Rain Light Rain
6:15 AM 50.0 °F - 48.2 °F 94% 29.68 in 10.0 mi West 12.7 mph 33.4 mph 0.01 in Rain Light Rain
6:53 AM 52.0 °F - 51.1 °F 97% 29.69 in 6.0 mi West 13.8 mph - 0.36 in Rain Heavy Rain
6:56 AM 51.8 °F - 51.8 °F 100% 29.70 in 2.0 mi West 12.7 mph - 0.01 in Rain Heavy Rain
7:10 AM 53.6 °F - 51.8 °F 94% 29.68 in 1.8 mi WSW 12.7 mph - 0.15 in Rain Heavy Rain
7:17 AM 53.6 °F - 51.8 °F 94% 29.69 in 2.5 mi SSW 11.5 mph - 0.22 in Rain Heavy Rain
7:21 AM 53.6 °F - 51.8 °F 94% 29.70 in 4.0 mi South 11.5 mph - 0.23 in Rain Heavy Rain
7:36 AM 53.6 °F - 53.6 °F 100% 29.70 in 3.0 mi SW 9.2 mph - 0.30 in Rain Heavy Rain
7:53 AM 53.1 °F - 53.1 °F 100% 29.70 in 5.0 mi SSW 5.8 mph - 0.37 in Rain Heavy Rain
8:27 AM 55.4 °F - 53.6 °F 94% 29.74 in 2.5 mi SSW 9.2 mph - 0.10 in Rain Light Rain
8:43 AM 55.4 °F - 53.6 °F 94% 29.74 in 2.5 mi SSW 8.1 mph - 0.19 in Rain , Thunderstorm Thunderstorms and Rain
8:53 AM 55.9 °F - 55.0 °F 97% 29.73 in 2.5 mi SSW 9.2 mph - 0.24 in Rain , Thunderstorm Thunderstorms and Rain
9:13 AM 55.4 °F - 55.4 °F 100% 29.74 in 3.0 mi SSW 11.5 mph - 0.09 in Rain Light Rain
10:21 AM 55.4 °F - 53.6 °F 94% 29.73 in 10.0 mi SSW 11.5 mph - 0.01 in   Mostly Cloudy
10:53 AM 55.9 °F - 54.0 °F 93% 29.73 in 10.0 mi West 10.4 mph - 0.01 in   Partly Cloudy
11:34 AM 55.4 °F - 53.6 °F 94% 29.74 in 10.0 mi WSW 11.5 mph - 0.01 in   Overcast
11:53 AM 57.0 °F - 54.0 °F 89% 29.71 in 10.0 mi WSW 12.7 mph - 0.01 in   Mostly Cloudy
12:53 PM 57.9 °F - 53.1 °F 84% 29.69 in 10.0 mi SW 16.1 mph 24.2 mph 0.01 in   Mostly Cloudy
1:53 PM 60.1 °F - 51.1 °F 72% 29.64 in 10.0 mi SW 18.4 mph - N/A   Mostly Cloudy
2:53 PM 60.1 °F - 48.0 °F 64% 29.63 in 10.0 mi SW 20.7 mph 29.9 mph N/A   Scattered Clouds
3:53 PM 59.0 °F - 45.0 °F 60% 29.62 in 10.0 mi SW 16.1 mph 27.6 mph N/A   Scattered Clouds
4:53 PM 59.0 °F - 32.0 °F 36% 29.65 in 10.0 mi WSW 18.4 mph 24.2 mph N/A   Scattered Clouds
5:53 PM 54.0 °F - 34.0 °F 47% 29.69 in 10.0 mi West 15.0 mph 25.3 mph N/A   Scattered Clouds
6:53 PM 53.1 °F - 35.1 °F 50% 29.73 in 10.0 mi West 13.8 mph 23.0 mph N/A   Mostly Cloudy
7:53 PM 51.1 °F - 35.1 °F 54% 29.78 in 10.0 mi West 16.1 mph - N/A   Mostly Cloudy
8:53 PM 48.0 °F - 35.1 °F 61% 29.83 in 10.0 mi West 6.9 mph - N/A   Mostly Cloudy
9:53 PM 48.0 °F - 35.1 °F 61% 29.87 in 10.0 mi West 9.2 mph - N/A   Scattered Clouds
10:53 PM 45.0 °F 40.6 °F 35.1 °F 68% 29.91 in 10.0 mi West 8.1 mph - N/A   Partly Cloudy
11:53 PM 44.1 °F 39.5 °F 34.0 °F 68% 29.94 in 10.0 mi West 8.1 mph - N/A   Mostly Cloudy